Hoolehua, HI

4:52 AM HST on September 27, 2016 (GMT -1000)
Molokai

Weather History for PHMK - November, 2011

Change the Weather History Date:

Saturday, November 26, 2011

  Actual Average Record
Temperature  
Mean Temperature 72 °F -  
Max Temperature 77 °F 79 °F 84 °F (1991)
Min Temperature 68 °F 66 °F 57 °F (1985)
Cooling Degree Days 8    
Growing Degree Days 22 (Base 50)    
Moisture  
Dew Point 64 °F    
Average Humidity 76    
Maximum Humidity 94    
Minimum Humidity 64    
Precipitation  
Precipitation 0.22 in - - ()
Sea Level Pressure  
Sea Level Pressure 30.14 in    
Wind  
Wind Speed 13 mph (NE)    
Max Wind Speed 25 mph    
Max Gust Speed 34 mph    
Visibility 9 miles    
Events Rain    
Averages and records for this station are not official NWS values.
T = Trace of Precipitation, MM = Missing Value Source: NWS Daily Summary

Daily Weather History Graph

Daily Weather History Graph

Search for Another Location

Airport or City:

Trip Planner

Search our weather history database for the weather conditions in past years. The results will help you decide how hot, cold, wet, or windy it might be!

Date:

Astronomy

Nov. 26, 2011 Rise Set
Actual Time 6:45 AM HST 5:45 PM HST
Civil Twilight 6:22 AM HST 6:09 PM HST
Nautical Twilight 5:54 AM HST 6:36 PM HST
Astronomical Twilight 5:27 AM HST 7:03 PM HST
Moon 8:21 AM HST (11/26) 7:34 PM HST (11/26)
Length of Visible Light 11h 47m
Length of Day
10h 59m
Waxing Crescent, 4% of the Moon is Illuminated
Nov 26
Waxing Crescent
Dec 1
First Quarter
Dec 10
Full
Dec 17
Last Quarter
Dec 24
New

Hourly Weather History & Observations

Time (HST) Temp. Dew Point Humidity Pressure Visibility Wind Dir Wind Speed Gust Speed Precip Events Conditions
12:39 AM 71.6 °F 64.4 °F 78% 30.13 in 10.0 mi NNE 9.2 mph - N/A   Mostly Cloudy
12:52 AM 71.6 °F 62.6 °F 73% 30.13 in 10.0 mi North 11.5 mph - N/A   Scattered Clouds
12:54 AM 72.0 °F 63.0 °F 73% 30.14 in 10.0 mi NNE 10.4 mph - N/A   Scattered Clouds
1:54 AM 72.0 °F 63.0 °F 73% 30.12 in 10.0 mi NNE 10.4 mph 17.3 mph N/A   Partly Cloudy
2:54 AM 72.0 °F 64.0 °F 76% 30.11 in 10.0 mi NNE 8.1 mph 19.6 mph 0.00 in Rain Light Rain
3:06 AM 71.6 °F 64.4 °F 78% 30.10 in 10.0 mi NNE 11.5 mph 23.0 mph 0.00 in   Overcast
3:17 AM 71.6 °F 62.6 °F 73% 30.10 in 10.0 mi North 12.7 mph 23.0 mph 0.00 in   Overcast
3:54 AM 72.0 °F 63.0 °F 73% 30.12 in 10.0 mi NNE 9.2 mph 19.6 mph 0.00 in   Mostly Cloudy
4:54 AM 72.0 °F 63.0 °F 73% 30.11 in 10.0 mi NNE 12.7 mph 20.7 mph N/A   Mostly Cloudy
5:54 AM 72.0 °F 64.0 °F 76% 30.12 in 10.0 mi NE 10.4 mph 17.3 mph N/A   Mostly Cloudy
6:22 AM 71.6 °F 62.6 °F 73% 30.12 in 10.0 mi NNE 11.5 mph 20.7 mph N/A   Mostly Cloudy
6:54 AM 72.0 °F 63.0 °F 73% 30.13 in 10.0 mi NE 9.2 mph 17.3 mph N/A   Mostly Cloudy
7:11 AM 71.6 °F 62.6 °F 73% 30.13 in 10.0 mi NE 13.8 mph 21.9 mph N/A   Mostly Cloudy
7:38 AM 73.4 °F 62.6 °F 69% 30.14 in 10.0 mi NNE 10.4 mph 18.4 mph N/A   Mostly Cloudy
7:54 AM 73.0 °F 62.1 °F 68% 30.15 in 10.0 mi NNE 12.7 mph 20.7 mph N/A   Mostly Cloudy
8:27 AM 73.4 °F 62.6 °F 69% 30.15 in 10.0 mi NE 12.7 mph 21.9 mph N/A   Mostly Cloudy
8:40 AM 73.4 °F 62.6 °F 69% 30.16 in 10.0 mi NNE 13.8 mph 20.7 mph N/A   Overcast
8:54 AM 73.0 °F 63.0 °F 71% 30.17 in 10.0 mi NNE 12.7 mph 19.6 mph N/A   Mostly Cloudy
9:25 AM 75.2 °F 62.6 °F 65% 30.16 in 10.0 mi NE 13.8 mph 24.2 mph N/A   Mostly Cloudy
9:34 AM 73.4 °F 62.6 °F 69% 30.16 in 10.0 mi NNE 15.0 mph 21.9 mph N/A   Scattered Clouds
9:49 AM 75.2 °F 62.6 °F 65% 30.16 in 10.0 mi NNE 10.4 mph 27.6 mph N/A   Mostly Cloudy
9:54 AM 75.0 °F 63.0 °F 66% 30.17 in 10.0 mi NE 15.0 mph 27.6 mph N/A   Mostly Cloudy
10:54 AM 75.0 °F 64.0 °F 69% 30.16 in 10.0 mi NE 12.7 mph 24.2 mph N/A   Mostly Cloudy
11:54 AM 77.0 °F 64.0 °F 64% 30.14 in 10.0 mi NE 15.0 mph 23.0 mph N/A   Mostly Cloudy
12:54 PM 75.0 °F 64.9 °F 71% 30.12 in 10.0 mi NNE 15.0 mph 24.2 mph N/A   Mostly Cloudy
1:51 PM 73.4 °F 64.4 °F 73% 30.10 in 10.0 mi NE 16.1 mph 27.6 mph N/A   Overcast
1:54 PM 73.9 °F 64.0 °F 71% 30.11 in 10.0 mi NNE 15.0 mph 27.6 mph N/A   Overcast
2:54 PM 73.0 °F 64.9 °F 76% 30.10 in 10.0 mi NNE 15.0 mph 26.5 mph N/A   Overcast
3:13 PM 71.6 °F 64.4 °F 78% 30.09 in 10.0 mi NNE 19.6 mph 29.9 mph N/A   Overcast
3:51 PM 69.8 °F 66.2 °F 88% 30.09 in 6.0 mi NNE 16.1 mph 29.9 mph 0.00 in Rain Light Rain
3:54 PM 70.0 °F 66.0 °F 87% 30.11 in 6.0 mi NE 15.0 mph 29.9 mph 0.00 in Rain Light Rain
4:49 PM 69.8 °F 66.2 °F 88% 30.11 in 4.0 mi NE 10.4 mph 24.2 mph 0.00 in Rain Light Rain
4:54 PM 69.1 °F 66.0 °F 90% 30.13 in 4.0 mi NE 13.8 mph 28.8 mph 0.01 in Rain Rain
5:50 PM 68.0 °F 66.2 °F 94% 30.14 in 4.0 mi NE 18.4 mph 32.2 mph 0.13 in Rain Light Rain
5:51 PM 68.0 °F 66.0 °F 93% 30.15 in 4.0 mi NE 20.7 mph 32.2 mph 0.13 in Rain Light Rain
6:00 PM 68.0 °F 66.2 °F 94% 30.14 in 4.0 mi NE 16.1 mph 33.4 mph 0.00 in Rain Light Rain
6:46 PM 69.8 °F 64.4 °F 83% 30.16 in 8.0 mi NE 13.8 mph 31.1 mph 0.03 in Rain Light Rain
6:54 PM 69.1 °F 64.0 °F 84% 30.17 in 6.0 mi NE 20.7 mph 31.1 mph 0.03 in Rain Light Rain
7:54 PM 70.0 °F 64.0 °F 81% 30.18 in 7.0 mi ENE 25.3 mph 34.5 mph 0.01 in Rain Light Rain
8:54 PM 70.0 °F 64.0 °F 81% 30.21 in 6.0 mi NE 17.3 mph 27.6 mph 0.03 in Rain Light Rain
9:54 PM 70.0 °F 64.0 °F 81% 30.22 in 5.0 mi NE 17.3 mph 29.9 mph 0.00 in Rain Light Rain
10:54 PM 70.0 °F 63.0 °F 78% 30.22 in 9.0 mi NE 18.4 mph 33.4 mph 0.01 in Rain Light Rain
11:54 PM 71.1 °F 63.0 °F 75% 30.22 in 10.0 mi ENE 16.1 mph 28.8 mph 0.00 in   Overcast